Wind_Speed
17 16 14 13 11 10 9 7 5 3 1 0 2 3 4 5 6 8 9 10 11 11 11 10 10 10 10 9 9 9 10 10 10 10 9 8 8 7 7 7 6 5 5 5
19 19 17 15 13 12 10 9 7 6 3 2 0 1 3 4 5 6 7 8 9 9 9 9 9 9 9 8 8 8 8 9 9 9 9 8 7 7 6 6 6 6 5 4
21 20 19 18 16 14 12 10 10 8 6 4 3 2 3 4 4 5 6 6 7 8 8 8 7 8 8 8 7 7 7 8 8 8 8 8 7 6 6 5 5 5 5 5
24 23 22 20 18 15 14 12 12 10 8 6 5 4 5 4 4 4 4 5 6 6 6 6 6 6 7 7 7 7 7 7 8 7 7 7 7 6 6 5 5 5 5 4
25 25 23 22 20 18 17 15 13 12 10 9 8 6 6 5 3 4 4 4 4 5 5 5 5 6 6 6 6 6 6 6 7 6 6 6 6 6 5 5 5 5 4 4
27 25 25 24 23 21 19 18 16 14 12 12 11 8 7 6 4 4 4 4 4 5 5 4 4 5 5 5 5 6 6 5 6 6 5 5 5 4 4 4 4 4 4 4
28 27 27 26 25 23 22 19 17 16 15 15 13 11 9 8 6 5 4 4 4 4 4 4 4 4 4 4 4 4 4 4 4 5 4 4 4 4 3 3 4 4 4 5
29 29 29 28 27 25 24 22 21 18 16 16 16 14 11 10 8 7 6 5 5 4 4 4 5 4 4 4 4 4 4 4 5 5 4 4 4 4 4 4 4 4 5 5
29 29 30 28 28 27 26 25 23 21 19 18 17 15 13 12 10 9 8 7 6 6 5 5 5 4 4 4 4 4 4 5 5 5 5 5 4 5 5 5 5 5 5 6
29 29 30 28 28 29 28 26 25 24 22 20 19 17 15 14 12 11 10 10 9 8 7 7 6 6 5 5 5 5 5 6 6 6 6 6 6 6 6 6 6 6 6 7
30 30 30 30 31 29 29 28 27 26 24 21 20 19 18 16 15 14 13 12 11 11 10 9 9 8 8 7 6 6 6 7 7 7 7 7 7 7 7 7 7 7 7 8
30 30 30 31 31 31 30 29 28 27 27 25 23 21 20 19 17 16 16 15 14 14 13 12 11 11 10 10 9 8 8 8 9 9 8 8 7 7 8 8 8 8 8 8
30 31 31 31 32 32 32 30 29 28 28 27 25 23 22 22 20 19 18 17 16 15 14 14 13 12 12 12 11 10 10 10 10 9 9 9 8 8 8 9 9 9 9 10
31 32 32 30 30 30 31 30 30 29 29 28 28 25 24 23 23 21 20 18 17 17 16 15 15 15 15 14 14 13 12 11 11 10 10 10 9 8 9 10 10 10 11 11
33 33 33 32 32 31 30 30 31 31 30 30 29 28 27 26 25 23 21 20 19 19 18 17 17 17 17 16 15 15 14 13 12 12 11 11 11 10 10 10 11 12 12 13
35 34 33 32 32 32 32 32 32 32 31 31 30 29 28 27 26 24 23 22 21 21 20 19 19 18 18 18 17 16 15 15 15 14 13 13 13 12 11 12 13 14 14 14
34 34 34 33 33 33 34 33 32 32 32 31 30 29 28 27 27 26 25 23 23 23 23 22 21 21 20 20 18 18 18 17 17 16 16 15 15 14 13 14 14 14 15 16
34 34 33 33 33 35 33 32 32 32 32 32 31 30 29 28 27 27 27 26 25 25 24 23 23 23 22 22 21 20 19 19 18 18 18 18 18 16 16 16 16 16 17 17
34 34 33 32 33 34 33 32 31 32 32 32 32 31 30 29 28 28 28 27 27 26 25 25 25 25 24 23 22 22 22 20 20 20 21 21 20 19 19 18 18 18 19 19
34 34 33 33 33 33 32 31 31 31 32 31 32 32 31 30 29 29 28 28 28 27 27 26 26 26 26 25 24 23 22 22 22 23 23 23 22 21 21 21 21 21 21 21
35 35 34 33 33 32 32 32 31 31 31 30 31 31 31 31 30 29 29 28 28 28 28 28 28 27 27 26 26 25 25 25 25 25 25 25 24 24 24 23 23 23 23 23
36 36 36 34 34 33 34 33 33 32 30 30 30 30 30 30 29 29 29 29 29 30 30 29 29 29 28 28 28 28 27 27 27 27 26 26 26 26 25 25 25 25 25 25
36 36 37 37 36 35 35 34 32 31 30 30 29 29 28 29 29 30 30 30 30 30 30 29 29 30 29 29 29 29 29 29 29 28 27 26 26 26 26 27 27 27 27 26
36 36 37 37 37 37 36 34 32 30 30 29 29 29 29 29 30 30 30 31 32 32 32 31 30 31 31 31 30 30 29 29 29 29 28 27 28 28 29 29 28 27 27 27
35 35 36 37 37 36 36 35 33 31 30 30 30 30 30 30 31 31 31 31 31 30 30 31 31 32 32 31 32 31 30 30 30 29 29 29 30 30 29 29 30 29 29 30
35 35 35 36 36 36 34 34 33 32 31 31 31 31 31 31 31 30 31 31 31 30 30 31 31 32 32 32 32 32 32 32 31 30 31 31 32 31 30 30 29 29 31 31
Wind_Direction
218 217 218 219 217 214 217 218 224 227 212 69 53 48 38 36 40 45 44 44 45 45 47 48 51 53 56 59 62 64 66 65 66 69 72 74 74 71 70 70 73 81 84 85
221 222 222 224 225 221 223 222 228 235 227 222 236 7 11 16 26 38 39 39 40 39 42 45 48 51 53 58 58 58 62 64 66 66 68 71 71 71 68 66 65 68 73 79
224 225 226 227 228 227 227 227 229 236 239 248 248 285 315 339 356 19 26 30 31 33 35 37 41 46 50 55 57 60 61 62 62 63 64 62 64 68 67 66 69 66 63 61
224 226 227 228 230 229 230 231 233 237 243 254 252 261 289 306 324 353 3 13 20 23 26 28 33 37 43 51 55 57 60 58 57 57 58 58 62 68 69 67 69 64 57 52
226 227 227 228 230 231 233 238 239 240 244 251 254 248 268 283 299 324 334 337 357 6 10 21 26 28 33 41 45 51 54 53 54 54 54 56 58 62 62 61 58 52 44 40
228 228 227 227 230 231 234 237 240 244 245 248 250 248 254 271 283 297 313 317 324 338 349 360 10 14 21 30 38 44 42 45 48 46 45 49 50 52 51 45 38 32 23 15
227 228 227 226 228 230 231 232 237 240 242 245 249 247 245 253 262 272 290 299 314 328 330 331 341 352 2 15 23 28 26 28 31 31 29 32 37 35 26 14 9 6 6 2
228 229 229 228 228 230 231 230 230 234 242 250 252 247 246 248 251 256 266 276 287 305 310 311 318 327 336 349 2 8 9 4 2 3 6 9 12 15 10 360 350 345 343 345
226 230 231 229 228 229 232 231 231 237 242 245 247 250 250 246 248 252 258 265 272 283 294 302 306 305 310 320 329 337 341 346 346 346 347 350 352 354 349 343 337 335 336 338
226 229 232 230 229 230 231 232 233 233 237 242 246 248 246 249 250 250 254 260 263 270 280 288 296 293 291 298 307 314 317 323 330 333 330 330 331 338 340 336 335 334 331 330
227 229 232 231 230 231 232 233 234 237 238 241 246 250 251 254 250 248 251 257 259 266 273 277 282 283 279 282 291 300 303 307 315 319 321 319 320 323 328 331 330 328 328 328
227 229 232 234 233 232 234 235 236 237 240 242 244 248 250 253 250 247 246 251 256 262 268 270 272 274 275 276 280 289 293 297 305 309 311 312 311 315 318 319 320 321 321 322
227 228 231 234 235 233 234 235 237 240 242 244 245 248 248 251 251 248 245 247 252 257 262 265 266 270 270 271 275 280 287 291 298 300 302 304 307 310 309 310 311 313 314 316
229 230 230 232 236 240 237 237 238 240 241 244 246 247 247 250 251 249 246 245 248 251 257 261 264 266 267 268 271 274 279 284 292 295 296 297 302 302 301 303 305 307 308 310
231 233 233 234 236 239 240 239 240 242 244 246 248 250 250 249 251 249 245 244 246 249 253 257 261 263 263 266 267 269 273 276 281 285 288 291 293 296 296 298 301 302 303 304
232 234 235 236 238 240 241 240 240 241 243 245 246 248 249 250 248 245 243 243 246 249 252 254 256 259 260 262 264 263 266 271 276 279 284 286 286 288 291 295 298 298 298 301
233 234 236 238 239 241 241 240 241 242 243 244 245 247 248 248 245 243 242 243 245 248 251 253 254 256 259 260 262 263 263 266 271 275 280 283 285 287 290 292 295 298 298 298
232 234 236 238 239 241 244 244 243 244 244 244 244 245 246 246 244 242 241 241 243 246 248 248 251 255 257 258 260 262 263 265 267 272 275 280 282 283 286 289 292 294 297 298
234 235 236 237 240 244 244 244 244 244 244 243 243 244 245 245 245 243 241 241 242 244 245 247 249 251 254 257 259 260 260 263 266 269 271 275 278 280 282 285 287 289 293 295
233 235 237 238 240 243 245 244 243 244 246 243 243 243 243 244 244 243 241 241 241 243 245 247 249 250 254 256 257 258 259 262 265 267 269 271 273 275 279 281 284 286 289 292
233 234 236 240 243 244 244 245 243 243 245 245 243 243 243 243 243 241 239 241 242 244 247 249 249 249 252 253 255 256 257 260 262 265 267 269 271 272 274 277 282 285 287 289
233 234 235 238 241 244 244 244 243 243 244 244 243 242 243 242 241 240 240 241 242 244 247 249 249 249 249 251 253 254 255 258 261 264 266 269 271 271 272 274 279 282 285 286
233 235 237 238 240 243 244 244 245 245 245 244 243 241 241 241 240 241 242 242 243 244 246 246 248 249 250 251 252 252 255 258 261 262 266 266 269 270 272 274 276 280 283 284
234 235 238 240 240 242 244 245 245 244 244 241 239 240 242 241 241 242 244 244 245 247 247 246 247 247 249 251 252 254 256 260 263 265 268 268 268 270 271 274 277 278 280 281
235 236 237 238 238 240 242 243 243 243 242 240 239 239 240 241 243 244 244 244 246 248 248 248 247 247 248 250 251 255 259 262 265 266 267 269 268 268 270 272 276 278 279 279
234 236 238 238 237 239 241 241 242 241 241 239 239 238 240 243 243 244 244 244 246 247 248 247 246 247 248 251 253 256 259 263 266 267 266 266 267 268 271 273 276 280 280 280
Height
5906 5910 5912 5914 5915 5918 5919 5920 5921 5920 5919 5919 5919 5919 5918 5917 5916 5915 5913 5912 5910 5909 5907 5906 5904 5903 5901 5900 5899 5898 5897 5895 5894 5893 5892 5891 5891 5890 5889 5889 5888 5888 5888 5887
5904 5907 5909 5911 5913 5915 5916 5918 5919 5919 5919 5919 5919 5919 5919 5918 5917 5916 5915 5913 5912 5911 5909 5908 5906 5905 5903 5902 5901 5900 5898 5897 5896 5895 5894 5893 5893 5892 5891 5890 5890 5889 5888 5888
5901 5905 5906 5908 5910 5912 5914 5916 5917 5918 5918 5918 5919 5920 5919 5918 5917 5917 5916 5914 5913 5912 5911 5909 5908 5906 5905 5904 5902 5901 5900 5899 5898 5897 5896 5895 5894 5893 5892 5892 5891 5890 5889 5889
5896 5899 5902 5905 5907 5910 5912 5913 5915 5916 5917 5918 5919 5921 5919 5918 5917 5917 5916 5915 5914 5913 5912 5910 5909 5908 5906 5905 5904 5903 5901 5900 5899 5898 5897 5896 5895 5894 5893 5893 5892 5891 5890 5890
5892 5895 5898 5901 5904 5907 5909 5911 5912 5914 5915 5917 5917 5919 5920 5918 5917 5917 5916 5915 5914 5913 5912 5911 5910 5909 5907 5906 5905 5904 5903 5902 5900 5899 5898 5897 5896 5895 5895 5894 5893 5892 5891 5890
5887 5891 5894 5897 5900 5903 5905 5908 5909 5911 5913 5915 5916 5917 5918 5917 5916 5916 5915 5914 5914 5913 5912 5911 5910 5909 5908 5907 5906 5905 5904 5903 5901 5900 5899 5898 5897 5896 5896 5895 5894 5893 5892 5891
5882 5885 5889 5892 5895 5898 5901 5905 5908 5909 5911 5913 5913 5913 5916 5915 5915 5915 5915 5914 5913 5913 5912 5911 5910 5910 5909 5908 5907 5906 5905 5903 5902 5901 5900 5899 5898 5897 5896 5895 5894 5893 5892 5891
5877 5881 5884 5887 5891 5894 5897 5902 5905 5908 5910 5911 5910 5910 5913 5912 5912 5913 5913 5913 5913 5912 5911 5911 5910 5909 5909 5908 5907 5906 5905 5904 5902 5901 5900 5899 5898 5897 5896 5895 5894 5893 5892 5891
5873 5877 5879 5882 5886 5890 5892 5896 5900 5903 5905 5906 5907 5908 5908 5909 5910 5911 5911 5911 5911 5911 5910 5910 5909 5909 5908 5907 5907 5906 5905 5904 5902 5901 5900 5899 5898 5897 5896 5895 5894 5893 5892 5890
5867 5871 5873 5877 5881 5884 5888 5891 5894 5897 5899 5902 5904 5904 5906 5905 5907 5908 5908 5909 5909 5909 5909 5908 5908 5908 5907 5907 5906 5905 5904 5903 5902 5901 5900 5898 5897 5896 5895 5894 5893 5892 5891 5890
5861 5865 5868 5871 5874 5878 5882 5885 5888 5891 5894 5897 5900 5903 5902 5902 5903 5904 5905 5906 5906 5907 5906 5906 5906 5906 5906 5905 5905 5904 5903 5902 5901 5900 5899 5898 5897 5896 5895 5893 5892 5891 5890 5889
5855 5859 5862 5864 5868 5871 5875 5878 5882 5885 5887 5890 5894 5899 5897 5897 5898 5900 5901 5902 5903 5903 5903 5903 5903 5903 5903 5903 5903 5903 5902 5901 5900 5899 5898 5897 5896 5894 5894 5893 5891 5890 5889 5888
5848 5852 5855 5858 5862 5864 5867 5870 5874 5878 5881 5883 5887 5892 5891 5892 5893 5895 5896 5898 5899 5899 5900 5900 5900 5900 5901 5901 5901 5900 5900 5899 5898 5897 5896 5895 5894 5893 5892 5891 5890 5889 5888 5886
5841 5845 5849 5854 5856 5858 5860 5864 5867 5871 5873 5876 5879 5884 5885 5886 5887 5889 5891 5892 5894 5895 5896 5896 5896 5897 5897 5897 5897 5897 5897 5896 5895 5895 5894 5893 5892 5891 5890 5889 5888 5887 5886 5884
5833 5837 5841 5845 5848 5851 5854 5857 5860 5863 5866 5870 5873 5875 5878 5880 5881 5883 5885 5887 5888 5890 5891 5892 5892 5892 5893 5893 5894 5894 5894 5893 5893 5892 5891 5890 5890 5888 5888 5887 5886 5884 5883 5882
5826 5830 5834 5838 5841 5843 5846 5849 5852 5855 5859 5862 5865 5868 5870 5872 5875 5877 5879 5881 5883 5885 5886 5887 5887 5888 5888 5889 5889 5889 5890 5889 5889 5888 5888 5887 5887 5886 5885 5884 5883 5882 5880 5879
5818 5823 5827 5830 5833 5835 5837 5842 5845 5848 5851 5854 5857 5861 5862 5865 5867 5870 5873 5875 5877 5879 5880 5881 5882 5883 5883 5884 5884 5885 5885 5885 5885 5885 5884 5884 5883 5882 5881 5880 5879 5878 5877 5875
5811 5814 5818 5822 5825 5826 5833 5835 5837 5840 5843 5846 5849 5852 5854 5857 5860 5863 5865 5868 5870 5872 5874 5875 5876 5877 5878 5878 5879 5879 5880 5880 5880 5880 5880 5880 5879 5878 5877 5877 5876 5874 5873 5871
5803 5806 5810 5814 5816 5819 5824 5826 5829 5832 5834 5837 5840 5844 5846 5849 5852 5855 5857 5860 5863 5865 5867 5868 5869 5870 5871 5872 5873 5873 5874 5875 5875 5875 5875 5875 5874 5873 5873 5872 5871 5869 5868 5867
5794 5798 5803 5805 5808 5811 5816 5818 5820 5824 5825 5829 5832 5835 5838 5841 5844 5847 5850 5852 5855 5857 5859 5861 5862 5863 5864 5866 5867 5867 5868 5869 5869 5869 5869 5869 5869 5868 5867 5867 5865 5864 5863 5861
5786 5789 5793 5796 5799 5803 5807 5809 5812 5816 5819 5821 5823 5826 5829 5832 5836 5839 5841 5844 5846 5849 5851 5853 5854 5856 5857 5858 5860 5861 5861 5862 5862 5862 5862 5862 5862 5862 5861 5860 5859 5858 5857 5855
5777 5781 5785 5788 5791 5797 5797 5800 5804 5807 5810 5812 5815 5818 5821 5824 5827 5830 5832 5835 5838 5840 5842 5844 5846 5847 5849 5850 5852 5853 5854 5855 5855 5855 5855 5855 5854 5854 5854 5853 5853 5852 5850 5849
5768 5772 5776 5780 5784 5786 5788 5791 5794 5798 5801 5804 5807 5810 5813 5816 5819 5821 5824 5827 5829 5832 5834 5836 5837 5839 5841 5842 5844 5845 5846 5847 5848 5848 5847 5847 5847 5847 5846 5846 5845 5844 5843 5842
5758 5762 5766 5770 5774 5777 5779 5782 5786 5789 5793 5796 5799 5802 5804 5807 5810 5813 5816 5818 5820 5823 5825 5827 5829 5831 5833 5834 5835 5837 5838 5839 5839 5839 5839 5839 5839 5839 5839 5838 5837 5836 5835 5834
5748 5753 5756 5759 5764 5767 5770 5774 5777 5781 5784 5787 5790 5793 5796 5799 5801 5804 5807 5809 5812 5814 5816 5818 5820 5822 5824 5826 5827 5829 5830 5830 5831 5831 5831 5831 5831 5830 5830 5830 5829 5828 5827 5826
5740 5743 5747 5751 5755 5758 5762 5765 5769 5772 5775 5778 5782 5785 5787 5790 5793 5795 5798 5800 5803 5805 5807 5809 5811 5813 5815 5817 5819 5820 5821 5822 5822 5822 5822 5822 5822 5822 5821 5821 5820 5819 5818 5817